RH
82 64 62 63 49 25 23 18 14 13 13 13 11 11 48 92 96 76 75 95 71 95 66 96 90 95 80 71 41 31 44 48 49 52 45 42 38 39 37 37 40 42 44 48 65 88 58 40 40 36 30 24 27 34
71 77 70 73 63 42 25 22 19 13 10 9 9 11 45 65 98 99 92 93 97 100 82 97 98 96 86 68 52 44 44 31 33 35 35 40 38 40 40 43 41 41 39 41 41 38 38 40 39 34 26 22 24 32
62 71 80 78 78 52 36 23 21 19 12 9 8 11 39 76 94 96 98 96 97 98 94 97 95 89 92 69 57 50 40 39 34 35 40 43 41 38 33 26 33 34 40 41 37 32 32 40 36 28 22 21 26 29
64 74 75 80 77 63 38 29 22 20 16 10 8 7 20 76 98 96 97 87 100 99 100 93 97 94 81 80 65 49 42 49 47 46 46 46 41 32 28 25 26 28 29 26 25 28 30 35 36 29 22 23 26 33
49 47 44 39 55 62 55 36 25 26 15 11 9 7 11 65 99 90 97 83 98 98 96 92 92 92 75 77 69 62 54 55 58 53 42 37 35 39 30 24 17 18 23 24 33 35 37 41 42 39 38 37 36 36
46 50 48 37 31 37 42 43 32 24 19 12 9 7 7 61 96 97 98 97 96 97 96 98 93 76 83 76 75 64 66 67 63 62 50 43 38 38 30 23 17 30 32 36 34 32 32 41 39 43 34 38 31 32
69 63 63 53 37 28 28 30 31 24 20 14 10 8 8 82 96 98 98 95 98 96 97 96 95 72 74 75 68 62 59 58 58 61 53 45 38 38 34 22 16 27 38 35 28 36 36 41 43 30 33 36 35 39
78 79 60 43 45 34 39 34 25 24 18 14 11 7 12 63 96 97 97 98 96 96 97 96 95 75 57 68 57 49 54 56 56 58 50 45 44 40 35 15 16 16 20 27 22 36 38 41 44 44 27 30 37 40
44 43 38 43 51 39 56 78 39 21 17 13 10 7 14 67 96 94 97 96 97 96 97 95 82 77 73 64 63 58 54 50 53 57 52 51 52 37 23 18 17 18 22 26 37 37 38 42 46 48 42 28 36 39
80 66 43 63 79 62 64 94 75 27 15 13 10 12 32 82 96 97 98 97 97 96 96 89 79 79 81 87 75 80 65 65 59 54 52 61 42 26 26 26 24 29 33 37 37 38 42 42 44 49 50 40 30 38
62 60 58 60 65 64 90 95 45 21 16 20 15 36 40 96 99 96 96 96 95 95 93 91 80 83 85 94 91 80 64 63 62 55 53 63 32 24 31 38 39 27 31 38 38 43 43 44 45 48 50 49 36 38
91 91 93 82 61 66 78 83 57 40 33 27 38 47 70 95 96 97 96 97 85 85 78 95 83 86 96 94 92 81 65 56 56 60 65 53 42 37 31 32 33 31 33 38 46 47 47 46 40 41 52 51 38 39
91 75 93 94 80 76 70 71 72 61 43 29 63 75 97 96 96 96 96 96 75 83 67 71 92 95 96 92 88 74 63 60 66 76 73 47 35 34 35 38 42 42 48 52 52 50 50 43 37 47 55 45 45 59
79 79 97 92 91 83 71 81 82 66 44 93 99 96 94 96 96 97 100 79 75 69 67 75 92 99 94 92 93 78 75 81 78 84 65 47 44 51 57 57 54 53 59 58 50 43 37 34 41 56 56 50 50 49
91 78 66 93 98 99 95 90 73 35 82 99 98 94 94 96 96 96 97 92 78 67 81 95 97 95 95 96 97 96 95 92 93 73 57 54 54 59 65 60 58 62 64 59 52 46 41 44 46 49 55 55 53 52
97 97 96 99 95 83 56 42 34 62 100 97 95 95 97 96 99 100 100 87 81 91 96 96 96 96 96 96 90 90 90 81 76 74 82 80 79 77 75 71 71 72 76 94 99 91 87 71 53 55 56 56 56 56
84 82 95 99 98 46 36 85 100 100 97 97 100 97 95 99 97 99 98 97 97 99 99 95 94 94 93 90 91 85 79 70 73 82 88 94 95 95 94 89 92 98 100 97 88 86 94 95 64 58 57 55 54 55
74 70 80 87 62 31 93 99 100 96 97 99 99 95 96 98 95 96 97 96 97 97 96 95 84 84 90 92 87 79 76 75 89 95 95 96 96 96 96 96 96 96 97 97 92 85 96 96 82 63 60 59 58 56
83 64 82 85 68 44 98 97 88 96 96 99 96 96 96 96 96 96 96 96 96 97 97 89 89 84 80 83 84 82 84 95 96 94 90 94 95 95 95 95 95 96 96 97 94 96 95 95 95 93 84 73 63 59
82 62 83 81 55 41 87 81 96 100 96 96 96 96 96 96 96 96 96 96 96 96 96 95 90 84 85 92 99 96 97 93 88 89 95 96 95 96 96 96 96 96 96 94 95 96 96 96 96 97 95 87 83 79
90 84 76 68 54 38 37 74 92 100 97 96 96 96 97 96 96 96 96 96 96 96 95 96 96 94 95 94 98 100 98 94 94 94 94 94 95 98 98 99 98 96 93 91 91 90 88 86 84 80 77 75 74 77
78 78 69 63 51 42 32 39 84 97 95 95 96 96 96 97 97 96 96 96 96 96 95 96 96 97 97 97 97 95 98 99 98 97 93 88 83 79 74 69 65 61 59 57 56 58 62 66 70 71 70 69 69 73
68 68 59 54 45 49 47 49 73 84 94 96 96 95 96 95 95 96 94 96 96 97 96 96 96 95 96 96 98 97 96 97 92 88 84 77 71 68 65 62 57 51 40 32 25 20 19 17 14 13 13 12 12 14
66 68 62 47 48 51 46 40 30 30 50 83 83 63 66 67 75 88 94 96 96 96 96 96 95 95 96 97 98 96 95 92 88 84 79 75 67 56 40 26 16 13 11 8 7 6 5 5 5 4 5 6 7 8
68 62 51 46 49 48 45 43 40 35 35 35 40 40 39 32 36 39 41 50 61 75 78 84 89 87 76 62 48 41 37 34 27 19 14 10 8 7 7 7 6 6 7 7 7 10 10 11 12 15 16 17 20 24
59 56 55 49 50 52 50 59 50 43 40 38 37 34 35 31 30 39 48 52 52 50 46 41 36 32 28 23 20 17 14 13 11 9 8 8 8 8 8 9 11 12 16 20 21 27 32 36 41 44 47 50 54 55
56 58 56 56 65 69 72 74 63 46 39 46 52 50 45 46 48 49 42 45 44 43 42 39 38 38 35 30 28 27 26 22 20 18 17 21 23 23 24 27 32 39 46 53 57 64 72 75 77 76 71 64 55 42
55 51 51 51 67 75 76 76 75 74 72 70 67 70 73 71 70 65 63 62 66 69 69 67 58 60 61 55 50 48 50 46 40 39 43 41 44 50 56 60 71 81 89 92 94 91 81 66 49 31 21 16 13 11
66 62 76 81 74 75 80 84 83 85 80 75 76 78 78 77 78 77 78 80 81 82 86 80 71 67 67 66 61 55 52 50 53 59 63 72 80 89 96 100 100 100 90 72 56 41 31 26 24 21 18 15 13 10
66 72 78 81 78 84 87 90 92 93 93 92 92 91 91 91 88 86 85 85 87 90 93 92 83 70 76 77 66 58 60 73 83 85 99 100 100 100 100 99 91 74 60 48 38 31 29 28 24 20 18 17 16 14
89 91 93 94 92 96 97 96 96 96 95 95 96 97 98 98 96 95 93 93 93 92 91 92 85 76 89 80 73 76 80 91 99 99 99 99 98 98 98 94 86 77 70 62 39 34 34 31 27 24 20 18 17 17
56 52 50 50 52 54 56 58 66 74 94 96 98 97 97 97 100 98 98 97 94 90 91 89 94 100 97 96 90 95 100 100 100 99 99 98 99 99 99 98 95 85 66 55 45 37 33 30 26 23 22 21 20 18
59 59 52 42 40 42 43 44 46 46 46 48 53 58 61 90 99 99 99 100 97 94 91 89 97 98 97 100 96 100 100 100 100 100 100 100 100 100 96 85 73 68 64 58 53 46 41 35 30 28 27 23 19 15
Wind_Speed
29 28 27 26 25 24 21 19 21 23 27 32 29 25 23 20 22 29 39 49 41 42 60 40 45 32 32 32 33 32 27 27 24 22 16 14 12 11 10 11 6 5 4 5 5 7 6 14 17 13 14 12 10 14
29 31 33 32 28 27 26 22 20 20 22 27 26 26 25 33 19 20 40 59 40 35 33 34 32 45 31 31 29 28 21 14 20 15 18 12 12 9 12 6 9 6 8 4 5 8 9 13 14 12 10 10 7 10
31 29 31 34 31 28 29 27 25 23 21 23 26 22 21 26 21 33 33 40 33 32 33 40 36 31 35 32 28 32 28 25 18 21 14 14 9 11 10 12 14 10 11 14 12 7 10 9 12 10 8 6 6 9
30 30 28 30 31 29 29 29 27 26 24 23 26 23 22 25 25 37 45 35 33 34 37 42 42 39 30 30 28 31 28 26 23 19 17 16 14 10 12 13 15 13 13 14 17 12 7 8 11 9 7 8 8 8
27 27 26 25 28 31 30 29 30 28 27 25 27 25 21 21 22 24 57 36 38 35 21 33 34 34 41 29 30 27 30 27 27 26 23 21 23 20 19 20 22 17 20 18 10 9 11 12 14 11 9 9 9 8
28 28 26 25 24 28 30 31 30 29 27 26 27 25 23 16 15 19 32 51 39 36 8 29 34 36 31 34 31 31 28 26 26 26 26 26 24 17 11 17 12 9 9 6 9 13 12 14 15 11 9 8 7 5
31 33 33 30 27 26 29 30 31 32 29 28 27 23 21 14 15 30 29 40 54 32 45 11 24 36 28 34 30 31 31 27 25 24 26 26 24 19 26 29 16 12 16 13 14 13 11 12 14 13 11 9 7 6
23 25 26 27 28 25 25 28 32 33 30 30 26 20 19 15 17 30 34 31 28 38 42 14 15 25 37 28 26 29 29 25 27 29 29 28 26 26 26 24 16 21 24 25 21 16 14 15 17 14 14 13 11 8
29 29 29 30 30 27 22 23 31 32 30 29 25 17 15 15 7 27 12 17 26 35 18 17 19 23 33 36 27 21 23 28 26 28 32 26 27 20 18 15 17 19 21 17 15 18 20 22 22 19 16 16 15 14
27 28 28 25 24 24 24 21 22 24 26 28 18 13 10 11 6 19 25 41 38 34 35 19 24 14 27 42 39 26 21 17 11 21 18 27 33 28 26 19 18 16 14 19 21 22 23 23 23 22 20 18 18 18
16 20 22 23 19 20 22 21 20 26 25 21 12 13 13 10 26 19 18 23 18 15 31 32 28 18 20 31 36 23 16 15 9 14 16 9 24 25 23 24 25 23 22 25 24 23 23 21 19 18 19 20 19 18
11 13 16 19 21 20 22 17 14 21 20 15 15 13 12 17 11 10 20 18 13 14 15 37 31 31 19 23 20 19 9 11 7 10 11 9 20 21 21 18 24 22 21 22 22 21 20 18 18 18 18 19 17 17
12 12 11 10 13 16 16 15 13 14 13 12 9 11 6 10 8 8 15 18 22 20 21 29 38 31 23 20 11 12 11 11 7 9 7 12 19 20 19 20 20 17 19 20 20 19 16 16 15 15 17 17 16 15
13 6 8 6 5 8 10 13 12 10 11 10 9 7 7 7 7 9 14 26 23 18 20 14 36 33 25 17 9 8 9 9 9 9 10 14 17 16 12 13 14 18 18 14 13 12 13 11 10 14 17 17 18 15
6 3 2 6 2 6 8 11 12 13 16 9 7 6 12 10 7 10 11 16 24 20 17 22 35 25 29 10 10 8 12 9 9 10 14 17 18 16 14 15 18 17 12 10 7 3 3 3 6 11 15 17 17 15
5 3 3 4 5 6 6 10 13 16 18 6 7 9 10 8 8 11 15 23 27 28 29 36 21 11 12 7 10 9 9 7 8 10 11 10 10 10 10 13 14 12 13 13 11 7 6 3 1 4 7 8 10 12
7 6 4 3 4 5 5 11 11 16 8 6 7 8 9 10 11 10 16 29 35 35 38 20 11 9 11 9 11 12 10 9 7 9 8 9 8 8 7 7 9 10 10 12 11 8 9 8 4 5 7 8 10 11
5 6 6 5 4 3 6 9 10 9 6 7 7 7 8 12 13 14 17 29 41 44 29 17 11 13 9 12 15 17 14 12 11 9 10 8 7 6 5 6 7 6 7 10 9 10 7 11 9 5 6 6 7 8
3 3 4 1 2 2 4 7 5 6 5 7 7 7 9 12 13 18 23 37 39 23 21 16 8 14 12 13 16 16 14 13 15 14 12 11 12 12 10 9 8 8 9 11 12 11 11 9 8 8 6 4 3 5
3 4 3 1 2 5 4 5 5 7 11 10 8 8 11 13 15 19 26 39 22 20 12 8 13 17 16 17 17 15 16 14 13 12 12 11 10 8 6 5 5 5 5 6 4 3 8 9 9 8 8 8 8 8
4 4 2 4 3 4 4 6 4 7 12 10 8 8 11 11 12 16 21 28 25 11 15 18 17 17 18 19 19 17 15 14 12 11 9 6 4 5 4 4 3 1 1 2 2 3 4 5 6 8 9 9 9 10
5 4 4 4 3 3 3 5 6 8 9 10 9 9 12 13 11 12 13 13 14 17 19 19 19 18 17 17 17 17 16 13 12 10 8 7 4 3 2 3 5 6 7 8 9 10 11 12 13 15 16 17 18 19
6 5 5 5 4 4 6 8 7 8 7 9 9 8 8 9 12 14 12 15 20 21 21 21 21 21 19 18 16 14 13 12 11 9 8 8 9 9 9 10 12 14 15 16 17 17 18 18 19 20 22 23 24 26
6 5 4 5 5 6 6 6 6 6 7 8 7 6 7 7 7 7 12 17 16 15 15 16 17 16 15 14 13 13 13 14 14 14 14 14 15 16 16 16 16 16 17 18 19 19 19 20 20 21 21 21 21 21
5 4 5 5 4 7 6 7 7 6 6 7 9 7 9 9 9 9 14 14 12 11 11 10 9 10 11 13 13 14 15 15 16 17 16 16 17 17 18 17 17 17 17 17 17 17 16 16 15 15 14 14 13 13
2 2 3 4 4 5 4 5 4 7 8 7 6 7 8 8 6 6 14 16 15 13 12 11 11 11 11 12 12 12 12 13 13 14 14 14 14 14 13 13 13 12 12 12 11 11 10 9 8 8 7 7 7 8
3 3 5 6 7 7 7 8 9 8 6 4 8 8 5 4 3 7 13 14 13 11 9 9 8 8 8 8 9 9 9 9 10 11 11 11 10 10 10 9 7 7 5 5 4 3 3 2 2 2 2 3 4 6
4 4 5 4 4 4 4 4 4 4 4 5 5 3 4 4 4 9 10 12 11 9 9 7 6 6 7 7 8 8 8 7 7 7 8 8 7 6 6 6 5 4 4 3 3 3 3 2 1 0 2 4 7 10
5 5 5 4 3 4 1 2 3 3 3 3 4 5 3 3 4 6 8 9 10 9 8 6 5 5 7 8 8 8 8 7 7 5 6 5 6 9 11 11 9 8 7 6 5 3 2 1 1 3 6 9 12 14
4 5 4 4 3 1 1 2 3 4 5 6 6 6 6 7 7 7 7 8 9 10 11 11 9 7 7 8 8 7 6 6 5 5 7 10 12 14 14 13 11 9 6 4 2 0 2 3 6 8 11 14 17 19
4 3 3 2 2 2 2 3 4 4 4 4 5 5 5 7 8 9 11 13 14 15 14 13 12 9 8 6 5 4 5 7 9 13 16 16 18 18 16 13 10 8 5 2 3 4 6 8 10 13 16 18 20 22
3 2 2 2 2 2 2 3 3 4 5 5 5 5 6 7 7 9 11 14 15 15 13 12 11 10 7 4 5 11 12 12 14 16 17 17 16 14 12 10 8 5 4 4 5 7 9 12 14 16 18 20 22 24
1 2 2 2 1 1 2 3 3 4 5 6 6 7 8 8 6 5 5 7 9 11 12 14 12 13 10 8 11 12 11 11 13 15 16 16 15 13 9 6 5 6 6 7 9 11 13 16 17 19 21 23 24 25
Wind_Direction
268 270 278 284 284 288 301 304 295 281 274 277 283 289 252 248 289 244 242 226 225 229 231 248 244 212 212 215 216 213 209 214 218 225 223 227 230 220 232 238 242 240 236 227 204 229 293 325 328 324 311 321 334 345
271 268 270 277 279 280 284 297 306 304 291 288 286 290 271 255 250 232 223 219 222 220 237 209 204 208 202 219 218 211 205 205 212 206 213 210 216 210 221 248 233 243 230 254 240 286 324 320 303 313 324 322 329 342
270 273 269 270 274 276 278 285 299 302 300 294 286 289 273 261 277 223 221 216 210 221 231 211 216 208 209 217 210 218 219 219 218 215 214 215 217 218 229 249 249 252 262 261 288 325 323 344 346 326 312 307 324 333
271 271 274 271 271 272 275 276 288 300 298 294 290 287 286 269 270 200 201 203 202 209 216 220 215 197 205 217 213 216 216 217 217 216 219 222 225 244 247 253 258 256 260 270 287 297 296 323 338 327 314 310 313 326
272 274 277 276 273 272 272 275 279 292 298 300 294 290 287 270 273 255 209 217 209 205 214 209 206 206 217 222 215 211 214 217 218 226 231 240 245 250 261 264 267 275 263 253 271 294 303 312 309 307 302 303 299 309
270 272 276 280 277 272 273 272 276 283 293 300 299 291 289 269 278 219 215 224 231 226 167 194 208 209 209 211 211 215 216 214 217 232 240 243 244 244 256 255 269 239 191 217 277 292 300 310 313 293 286 288 294 310
266 267 271 279 283 277 273 273 273 275 288 296 302 293 283 261 233 193 202 213 216 215 204 170 196 209 207 212 213 217 221 222 225 229 236 243 249 245 251 251 245 257 236 249 285 291 291 297 313 303 276 267 264 269
276 269 269 270 272 278 281 276 274 275 283 289 302 290 272 264 235 196 199 207 206 198 201 209 203 202 205 210 211 218 220 222 228 233 240 243 245 245 255 261 259 251 247 256 271 271 289 286 296 292 277 258 250 249
270 267 265 273 277 271 270 274 271 273 281 287 301 281 267 274 270 206 181 196 191 189 179 190 197 202 205 206 208 214 218 223 232 238 239 242 244 236 256 260 252 256 260 245 250 279 287 290 285 278 266 253 248 242
271 266 263 265 264 267 246 255 266 271 277 286 292 256 254 259 218 150 179 173 185 199 203 202 194 198 195 198 199 202 209 206 223 227 231 234 244 246 246 244 254 256 246 253 275 281 287 292 285 268 248 250 242 240
283 260 256 255 260 252 246 250 261 262 275 281 262 238 223 216 169 183 169 179 181 198 205 203 200 189 177 191 196 198 206 207 220 225 218 230 249 251 255 259 255 259 263 262 270 281 288 287 277 263 241 238 237 233
289 288 276 261 249 241 236 241 260 260 263 259 251 229 245 212 203 183 176 179 183 196 202 202 192 200 176 176 179 187 182 190 208 198 201 234 248 254 259 262 246 244 253 260 272 281 283 273 268 257 234 230 223 223
317 302 291 268 239 234 235 239 249 253 255 246 235 222 257 215 237 197 177 175 199 188 185 187 191 186 182 172 165 172 188 202 192 199 209 226 239 244 247 243 245 247 250 266 277 277 270 265 261 233 220 217 216 225
326 276 284 267 234 227 217 217 241 240 212 196 204 230 232 218 226 220 199 199 188 169 181 181 183 184 178 162 163 171 181 180 201 205 203 218 230 236 222 224 239 258 264 272 270 265 257 248 235 217 216 215 222 230
337 245 201 150 181 204 231 242 238 206 191 205 207 236 229 234 250 209 186 177 179 179 180 180 179 180 178 174 178 171 179 199 206 203 213 220 230 242 240 233 243 251 245 231 215 210 210 216 220 217 219 227 233 231
329 314 246 258 285 294 254 220 195 186 189 222 222 236 237 225 213 200 175 169 168 172 175 170 162 160 172 180 176 192 182 187 210 213 214 221 230 234 229 225 229 224 217 219 234 242 261 285 278 200 192 195 204 208
299 262 333 265 308 298 224 185 173 175 201 217 234 232 213 198 203 199 183 173 168 168 169 162 160 172 160 184 179 175 182 177 163 176 185 206 215 213 207 211 210 204 211 215 208 213 238 210 198 202 197 192 198 198
277 258 258 309 310 268 183 167 169 187 205 204 197 199 189 186 192 183 175 173 165 164 169 164 164 167 160 174 176 175 177 163 157 158 155 147 139 137 157 160 146 152 181 191 158 149 178 183 133 140 154 165 176 186
311 206 190 278 299 205 144 156 175 178 175 153 153 159 165 166 168 169 167 171 171 171 164 153 149 165 160 161 165 161 168 162 166 162 146 135 124 112 100 92 94 97 106 139 147 145 128 134 162 178 172 147 161 189
45 146 150 36 148 165 161 170 177 160 163 152 159 156 150 147 144 160 171 175 178 175 160 142 149 153 149 148 152 159 161 164 155 145 149 155 139 122 106 88 77 72 50 36 57 156 199 208 223 242 236 222 219 208
109 127 73 55 92 166 177 173 171 159 154 157 150 141 125 129 143 151 172 188 197 187 130 131 142 152 159 162 165 167 164 155 147 148 154 159 151 135 129 133 151 173 285 301 298 298 297 293 290 289 289 285 277 267
118 105 73 47 71 91 101 150 154 151 156 161 163 144 127 119 134 153 159 176 165 154 146 143 144 149 156 158 157 159 160 163 167 170 171 174 185 208 243 272 283 286 281 280 279 279 278 278 278 279 279 279 278 277
133 103 72 52 54 74 96 128 140 143 152 158 149 138 133 126 119 118 114 142 146 147 152 157 160 162 166 171 174 178 181 184 191 201 217 233 246 256 266 275 284 287 288 286 286 285 283 281 279 278 277 275 275 274
132 113 68 50 72 90 104 113 134 129 145 162 160 139 144 137 129 128 135 144 145 152 163 163 163 166 172 181 188 195 205 214 226 237 247 257 266 273 278 280 280 280 280 280 280 280 280 280 280 278 278 278 278 278
122 93 105 98 93 86 94 99 109 124 133 138 145 143 150 152 153 142 164 175 181 186 190 198 204 202 208 217 223 229 235 241 247 253 258 263 269 274 276 278 278 277 276 277 280 284 286 287 286 286 285 285 286 289
92 92 105 118 95 68 92 87 107 138 134 128 133 133 140 137 135 144 169 172 176 183 192 202 214 225 235 241 248 252 252 255 258 261 263 264 264 265 269 270 271 273 276 280 286 292 295 296 294 291 291 294 298 302
72 93 112 107 98 92 88 81 79 90 90 85 125 134 126 115 119 151 169 177 185 193 201 208 215 227 233 238 244 250 253 253 254 258 260 260 262 261 259 259 262 264 274 292 299 292 289 292 299 313 322 320 313 310
98 114 123 108 85 64 65 85 106 94 92 111 131 136 117 131 138 154 160 165 170 184 193 193 198 220 233 244 252 258 263 268 270 268 268 263 255 239 218 203 195 193 178 166 155 147 139 136 137 351 337 333 329 325
151 154 156 145 56 33 327 220 210 190 167 153 163 180 166 163 150 159 172 183 189 194 194 196 209 236 248 253 262 272 276 275 271 260 242 224 199 177 166 160 159 152 144 141 136 128 112 73 360 336 330 329 328 325
190 199 210 240 281 333 119 160 167 189 200 202 204 204 204 205 212 218 215 212 210 211 216 227 239 258 253 254 264 266 258 234 211 180 161 168 168 164 159 154 149 146 144 134 126 168 285 299 310 319 326 329 329 329
221 221 227 226 212 204 170 163 167 167 174 182 188 197 210 220 228 234 237 235 234 233 235 237 247 243 230 236 241 231 200 183 172 168 169 170 168 163 158 155 156 164 171 197 277 294 308 315 317 318 321 324 326 326
188 196 201 205 205 202 206 218 230 233 238 237 232 228 230 236 257 267 254 241 234 233 232 222 209 202 188 165 162 143 132 142 155 167 171 173 172 171 170 173 174 186 231 265 293 310 317 320 322 325 326 326 325 325
203 251 254 255 250 248 246 251 254 258 253 250 245 245 243 241 248 260 244 223 222 222 208 195 196 186 177 172 159 151 154 161 164 170 175 175 176 176 177 195 232 250 272 292 304 312 319 324 325 325 324 323 323 323